N1SU-13 Weather Reports


time (UTC)temp
C
wind
direction
speed
KPH
gust
KPH
rain 1hr
cm
rain 24hr
cm
rain mn
cm
humidity
%
barometer
mb
20260505082116 13 0.0 0.0 0.00 0.00 0.00 80 1011.1
20260505080949 13 0.0 0.0 0.00 0.00 0.00 79 1011.0
20260505075941 13 0.0 0.0 0.00 0.00 0.00 78 1010.9
20260505075004 13 0.0 0.0 0.00 0.00 0.00 77 1010.8
20260505073901 13 0.0 0.0 0.00 0.00 0.00 78 1010.7
20260505072838 14 0.0 0.0 0.00 0.00 0.00 77 1010.6
20260505071718 15 0.0 0.0 0.00 0.00 0.00 76 1010.4
20260505070744 15 0.0 0.0 0.00 0.00 0.00 75 1010.3
20260505065659 15 0.0 0.0 0.00 0.00 0.00 74 1010.3
20260505064603 15 0.0 0.0 0.00 0.00 0.00 73 1010.1
20260505063511 16 0.0 0.0 0.00 0.00 0.00 71 1010.0
20260505062344 16 0.0 0.0 0.00 0.00 0.00 70 1009.9
20260505061349 16 0.0 0.0 0.00 0.00 0.00 70 1009.7
20260505060239 16 0.0 0.0 0.00 0.00 0.00 68 1009.7
20260505055201 17 0.0 0.0 0.00 0.00 0.00 67 1009.8
20260505054237 17 0.0 0.0 0.00 0.00 0.00 67 1009.5
20260505053234 17 0.0 0.0 0.00 0.00 0.00 66 1009.4
20260505052215 17 0.0 0.0 0.00 0.00 0.00 65 1009.4
20260505051043 18 0.0 0.0 0.00 0.00 0.00 64 1009.4
20260505041658 20 0.0 0.0 0.00 0.00 0.00 59 1008.4
20260505040710 20 0.0 0.0 0.00 0.00 0.00 58 1008.2
20260505035624 21 0.0 0.0 0.00 0.00 0.00 56 1008.0
20260505034503 21 0.0 0.0 0.00 0.00 0.00 55 1007.8
20260505033537 22 0.0 0.0 0.00 0.00 0.00 53 1007.6
20260505032534 23 0.0 0.0 0.00 0.00 0.00 50 1007.4
20260505031431 24 0.0 0.0 0.00 0.00 0.00 47 1007.2
20260505030328 25 0.0 0.0 0.00 0.00 0.00 43 1006.9
20260505025403 27 0.0 0.0 0.00 0.00 0.00 38 1006.7
20260505024327 28 0.0 0.0 0.00 0.00 0.00 36 1006.6
20260505023233 29 0.0 0.0 0.00 0.00 0.00 33 1006.5
20260505022238 29 0.0 0.0 0.00 0.00 0.00 31 1006.5
20260505021219 29 0.0 0.0 0.00 0.00 0.00 31 1006.5
20260505020258 29 0.0 0.0 0.00 0.00 0.00 31 1006.6
20260505015143 28 0.0 0.0 0.00 0.00 0.00 32 1006.7
20260505014154 28 0.0 0.0 0.00 0.00 0.00 31 1006.7
20260505013046 27 0.0 0.0 0.00 0.00 0.00 31 1006.7
20260505012032 27 0.0 0.0 0.00 0.00 0.00 33 1006.8
20260505010907 26 0.0 0.0 0.00 0.00 0.00 34 1007.1
20260505005739 26 0.0 0.0 0.00 0.00 0.00 33 1007.1
20260505004749 26 0.0 0.0 0.00 0.00 0.00 34 1007.2
20260505003816 26 0.0 0.0 0.00 0.00 0.00 33 1007.1
20260505002700 26 0.0 0.0 0.00 0.00 0.00 33 1007.1
20260505001523 26 0.0 0.0 0.00 0.00 0.00 33 1007.2
20260505000549 25 0.0 0.0 0.00 0.00 0.00 34 1007.1
20260504235515 25 0.0 0.0 0.00 0.00 0.00 35 1007.1
20260504234541 25 0.0 0.0 0.00 0.00 0.00 34 1007.3
20260504233403 25 0.0 0.0 0.00 0.00 0.00 34 1007.4
20260504232433 25 0.0 0.0 0.00 0.00 0.00 35 1007.3
20260504231429 25 0.0 0.0 0.00 0.00 0.00 36 1007.4
20260504230343 25 0.0 0.0 0.00 0.00 0.00 35 1007.4
20260504225423 25 0.0 0.0 0.00 0.00 0.00 36 1007.6
20260504224410 25 0.0 0.0 0.00 0.00 0.00 37 1007.7
20260504223240 25 0.0 0.0 0.00 0.00 0.00 37 1007.9
20260504222244 24 0.0 0.0 0.00 0.00 0.00 36 1008.0
20260504221213 24 0.0 0.0 0.00 0.00 0.00 37 1008.0
20260504220210 24 0.0 0.0 0.00 0.00 0.00 36 1008.1
20260504215251 24 0.0 0.0 0.00 0.00 0.00 38 1008.1
20260504214150 24 0.0 0.0 0.00 0.00 0.00 38 1008.2
20260504213219 24 0.0 0.0 0.00 0.00 0.00 40 1008.0
20260504212220 24 0.0 0.0 0.00 0.00 0.00 40 1008.2
20260504211214 24 0.0 0.0 0.00 0.00 0.00 40 1008.1
20260504210053 23 0.0 0.0 0.00 0.00 0.00 40 1008.2
20260504205110 23 0.0 0.0 0.00 0.00 0.00 42 1008.3
20260504204113 23 0.0 0.0 0.00 0.00 0.00 42 1008.4
20260504203009 23 0.0 0.0 0.00 0.00 0.00 42 1008.4
20260504201835 23 0.0 0.0 0.00 0.00 0.00 42 1008.5
20260504200834 23 0.0 0.0 0.00 0.00 0.00 43 1008.3
20260504195829 23 0.0 0.0 0.00 0.00 0.00 44 1008.4
20260504194913 23 0.0 0.0 0.00 0.00 0.00 44 1008.5
20260504193843 22 0.0 0.0 0.00 0.00 0.00 44 1008.7
20260504192733 22 0.0 0.0 0.00 0.00 0.00 44 1008.7
20260504191641 22 0.0 0.0 0.00 0.00 0.00 44 1008.9
20260504190644 22 0.0 0.0 0.00 0.00 0.00 44 1009.0
20260504185540 21 0.0 0.0 0.00 0.00 0.00 44 1009.0
20260504184406 21 0.0 0.0 0.00 0.00 0.00 44 1009.1
20260504183338 21 0.0 0.0 0.00 0.00 0.00 47 1009.2
20260504182417 20 0.0 0.0 0.00 0.00 0.00 46 1009.2
20260504181336 20 0.0 0.0 0.00 0.00 0.00 48 1009.3
20260504180300 20 0.0 0.0 0.00 0.00 0.00 49 1009.3
20260504175132 20 0.0 0.0 0.00 0.00 0.00 51 1009.5
20260504174016 19 0.0 0.0 0.00 0.00 0.00 50 1009.4
20260504172902 18 0.0 0.0 0.00 0.00 0.00 50 1009.3
20260504171736 18 0.0 0.0 0.00 0.00 0.00 51 1009.3
20260504170814 18 0.0 0.0 0.00 0.00 0.00 51 1009.5
20260504160359 16 0.0 0.0 0.00 0.00 0.00 58 1009.5
20260504151147 14 0.0 0.0 0.00 0.00 0.00 60 1009.0
20260504140918 13 0.0 0.0 0.00 0.00 0.00 65 1008.9
20260504130658 13 0.0 0.0 0.00 0.00 0.00 64 1008.4
20260504120256 12 0.0 0.0 0.00 0.00 0.00 62 1008.4
20260504100251 14 0.0 0.0 0.00 0.00 0.00 62 1008.1